Location: Bloemendaal
(52.4059°N, 4.6094°E)
Time: 02:06:11
(UTC+00:00)

Daily predictions for brighter satellites

Satellite Brightness Start Highest point End
(mag) Time Altitude Azimuth Time Altitude Azimuth Time Altitude Azimuth
CENTAUR R/B 4.2 00:02:00 10° WNW 00:08:31 36° N 00:16:02 10° ENE
Cosmos 2082 Rocket 4.3 01:00:46 21° NE 01:00:46 21° NE 01:02:46 10° NE
Cosmos 2322 Rocket 4.3 00:58:59 10° NNW 01:01:08 21° N 01:01:08 21° N
ATLAS 3B R/B 4.1 01:22:13 30° NNW 01:23:30 32° N 01:29:39 10° ENE
CZ-2D R/B 4.0 01:23:18 10° NNE 01:25:31 26° NNE 01:25:31 26° NNE
SL-16 R/B 4.5 01:27:19 10° NNW 01:28:32 17° NNW 01:28:32 17° NNW
NOSS 3-1 (C) 4.4 01:40:38 43° NNE 01:40:38 43° NNE 01:45:25 10° NE
SL-16 R/B 4.2 01:47:18 23° NNW 01:47:18 23° NNW 01:49:31 10° NNW
NOSS 3-2 (A) 4.3 01:42:49 10° NW 01:49:49 59° NNE 01:57:55 10° ESE
USA 267 4.4 01:44:12 10° ENE 01:48:35 33° ESE 01:48:35 33° ESE
Resurs 1-4 Rocket 3.7 01:54:50 10° N 01:57:29 30° N 01:57:29 30° N
CENTAUR R/B 3.6 01:53:22 10° NW 02:00:50 55° NNE 02:09:20 10° ESE
Cosmos 2360 Rocket 3.6 02:09:03 10° NNW 02:22:23 - SE 02:12:08 31° N
ADEOS II 3.2 02:14:10 10° NNE 02:17:29 40° NNE 02:17:29 40° NNE
IDEFIX/ARIANE 42P 3.6 02:15:41 10° NNE 02:19:41 42° ENE 02:19:41 42° ENE
USA 229 DEB 4.0 02:22:53 55° NNW 02:22:53 55° NNW 02:29:33 10° NE
USA 229 4.0 02:22:59 56° NNW 02:22:59 56° NNW 02:29:38 10° NE
USA 234 4.1 02:20:29 10° SE 02:24:09 36° SE 02:24:09 36° SE
ADEOS Rocket 3.6 02:30:07 41° N 02:30:07 41° N 02:33:38 10° NNW
NOSS 3-2 (C) 4.3 02:24:47 10° NW 02:31:52 63° NE 02:40:04 10° ESE
Lacrosse 5 3.7 02:40:09 22° ESE 02:40:09 22° ESE 02:41:55 10° ESE
Cosmos 1833 Rocket 4.0 02:39:48 30° NNW 02:39:48 30° NNW 02:43:51 10° NNE
NOSS 3-1 (A) 3.9 02:39:30 50° NNW 02:39:30 50° NNW 02:46:08 10° NE
Cosmos 2082 Rocket 3.1 02:42:36 41° NNW 02:42:36 41° NNW 02:47:02 10° NNE
ARGOS Delta rocket 4.5 02:37:09 10° NNE 02:42:07 63° ENE 02:42:07 63° ENE
Cosmos 2333 Rocket 3.2 02:37:38 10° NNW 02:43:12 45° NE 02:48:43 10° ESE
MSX 4.2 02:38:02 10° NNE 02:43:42 57° E 02:44:10 55° ESE
Cosmos 2221 3.7 02:53:27 41° ENE 02:53:27 41° ENE 02:56:59 10° NNE
SL-19 R/B 4.3 02:53:44 82° WNW 02:53:44 82° WNW 02:59:53 10° NNW
Cosmos 2219 Rocket 3.1 02:52:42 10° NNW 02:58:12 48° NE 03:03:41 10° SE
Cosmos 1269 Rocket 4.1 03:00:32 76° ENE 03:00:32 76° ENE 03:05:29 10° NNE
CZ-2C R/B 3.9 02:56:02 10° NNE 03:00:16 31° E 03:02:02 24° SE
IRS-1C 4.1 02:55:00 10° NNE 02:59:58 77° NNE 02:59:58 77° NNE
Aureole 3 Rocket 4.2 03:04:55 42° NNW 03:04:55 42° NNW 03:09:09 10° N
CZ-2D R/B 3.8 03:04:05 10° N 03:06:50 21° NW 03:06:50 21° NW
USA 238 DEB 3.7 03:05:10 10° NW 03:12:23 83° SW 03:19:54 10° SE
USA 238 3.7 03:05:17 10° NW 03:12:29 83° SW 03:20:00 10° SE
GEOS 3 Rocket 3.6 03:08:05 10° NE 03:13:28 75° NW 03:13:38 74° WNW
COSMOS 2428 3.4 03:08:58 10° NNW 03:14:36 54° NE 03:20:11 10° SE
ATLAS 3B R/B 3.8 03:09:25 10° NW 03:15:51 42° NNE 03:22:34 10° E
CZ-4B R/B 3.6 03:11:58 10° NNE 03:16:35 62° NW 03:16:35 62° NW
SL-08 R/B 4.5 03:13:44 10° NNW 03:19:26 58° WNW 03:19:26 58° WNW
ATLAS 5 CENTAUR R/B 4.2 03:20:30 10° SE 03:21:47 11° ESE 03:23:05 10° E
Meteor 2-15 4.4 03:21:45 58° W 03:21:58 58° WNW 03:28:02 10° N
ARIANE 5 R/B 2.4 03:18:21 10° NNE 03:23:22 73° WNW 03:23:22 73° WNW
S3M 3.9 03:21:13 41° S 03:23:34 83° E 03:29:49 10° NNE
Cosmos 1745 Rocket 3.9 03:17:40 10° NNW 03:23:59 75° W 03:26:32 38° S
SeaSat 1 4.0 03:20:29 10° ESE 03:24:56 35° NE 03:29:23 10° NNW
Cosmos 1500 Rocket 4.1 03:26:42 10° NNW 03:29:49 46° NNW 03:29:49 46° NNW
CZ-4C R/B 4.1 03:30:56 27° ESE 03:32:22 43° ENE 03:35:43 10° N
USA 267 3.2 03:27:10 10° ENE 03:33:46 88° SSE 03:35:57 46° WSW
Cosmos 2322 3.6 03:29:34 10° NNW 03:35:18 86° WSW 03:40:59 10° SSE
Cosmos 1709 Rocket 4.0 03:29:19 10° N 03:35:45 85° ENE 03:42:09 10° S
Resurs 1-4 Rocket 4.1 03:36:05 10° NNW 03:38:34 15° NW 03:38:34 15° NW
IRS-P3 4.4 03:35:15 10° N 03:40:20 46° WNW 03:40:30 46° WNW
NOSS 3-2 (A) 4.0 03:33:43 10° NW 03:40:57 57° SW 03:49:08 10° SSE
Meteor 1-4 Rocket 3.3 03:42:49 45° N 03:42:49 45° N 03:45:26 10° N
SWAS 4.5 03:40:14 19° NNW 03:43:17 79° NE 03:47:37 10° SE
H-2A R/B 3.1 03:39:29 10° SE 03:43:29 45° ENE 03:47:27 10° N
NOSS 2-2 (C) 3.8 03:44:33 45° NNW 03:44:33 45° NNW 03:48:20 10° NE
Spot 4 Rocket 3.9 03:39:58 10° NNE 03:45:08 74° WNW 03:46:28 49° SW
Cosmos 1842 Rocket 3.7 03:48:19 54° NW 03:48:19 54° NW 03:52:18 10° N
Iridium 4 Rocket 4.1 03:49:26 32° NW 03:49:26 32° NW 03:52:17 10° N
Cosmos 1633 Rocket 4.5 03:44:58 10° N 03:49:08 39° ENE 03:53:14 10° SE
COSMOS 2487 2.9 03:50:12 50° SE 03:50:33 53° ESE 03:53:54 10° NNE
Cosmos 2344 3.6 03:46:42 30° SSW 03:50:42 79° SE 03:58:55 10° NE
Cosmos 1833 4.2 03:48:29 35° SSW 03:50:56 82° ESE 03:56:36 10° NNE
CENTAUR R/B 3.1 03:44:08 10° NW 03:52:03 67° SW 04:00:47 10° SSE
Cosmos 2251 Rocket 3.7 03:53:53 25° SSW 03:57:02 74° ESE 04:02:26 10° NNE
NOSS 2-2 (E) 4.2 03:56:58 34° NW 03:57:16 35° NNW 04:01:19 10° NE
Cosmos 2360 Rocket 4.3 03:53:23 10° NW 04:04:24 - S 03:53:49 12° NW
ADEOS II 3.6 03:54:50 10° N 03:58:26 20° NW 03:58:26 20° NW
ISS -2.9 04:00:41 40° SSE 04:00:41 40° SSE 04:03:12 10° SE
IDEFIX/ARIANE 42P 3.4 03:55:37 10° N 04:00:11 32° WNW 04:00:30 32° WNW
Meteor 2-17 Rocket 4.3 03:55:06 10° NNW 04:01:10 77° W 04:07:12 10° S
ALOS 2.8 03:57:01 10° NNE 04:01:40 59° E 04:06:17 10° S
PAYLOAD A 4.0 03:56:34 10° NNE 04:01:53 77° WNW 04:05:04 25° SSW
Cosmos 1933 4.4 03:59:06 10° SSE 04:02:57 46° E 04:06:52 10° NNE
CZ-2C R/B 2.7 04:00:11 10° N 04:04:01 58° WNW 04:04:14 57° W
Cosmos 2237 Rocket 3.0 04:00:24 10° NNW 04:05:59 52° NE 04:11:30 10° SE
Cosmos 2333 4.4 04:00:42 10° NW 04:06:16 50° WSW 04:11:49 10° S
USA 234 3.9 04:05:10 10° S 04:10:45 30° SW 04:11:34 29° WSW
PSLV R/B 3.5 04:09:58 10° NNE 04:14:21 81° WNW 04:17:21 20° SSW
CZ-4C R/B 3.1 04:10:13 12° S 04:14:31 43° ESE 04:20:11 10° NE
Cosmos 883 Rocket 4.4 04:11:11 15° SSW 04:16:23 67° WNW 04:22:30 10° N
USA 276 3.2 04:16:02 32° S 04:16:29 34° SSE 04:19:26 10° E
GENESIS II 4.1 04:17:05 39° SW 04:18:29 87° NW 04:22:28 10° NE
Lacrosse 5 2.7 04:19:24 29° SW 04:19:24 29° SW 04:23:42 10° S
Cosmos 192 4.2 04:17:13 10° NNW 04:22:10 69° WSW 04:27:05 10° SSE
NOSS 3-4 (A) 4.3 04:16:58 10° SSW 04:22:33 47° ESE 04:28:34 10° NE
NOSS 3-4 (C) 4.3 04:17:05 10° SSW 04:22:39 46° ESE 04:28:40 10° NE
NOSS 3-2 (C) 4.2 04:15:47 10° NW 04:22:57 51° WSW 04:31:03 10° SSE
Cosmos 2082 Rocket 4.1 04:24:26 13° NW 04:27:07 17° NNW 04:30:45 10° NNE
SL-27 R/B 4.1 04:27:25 20° NW 04:27:25 20° NW 04:30:01 10° N
Cosmos 2333 Rocket 2.5 04:22:04 10° NW 04:27:29 43° WSW 04:32:53 10° S
SL-16 R/B 3.8 04:23:35 10° NNW 04:28:49 35° NE 04:34:01 10° ESE
Cosmos 2221 3.6 04:30:19 25° WNW 04:30:36 25° WNW 04:34:13 10° N
Cosmos 1484 Rocket 2.6 04:27:36 10° NNE 04:31:21 89° WNW 04:35:04 10° SSW
Cosmos 1805 Rocket 4.1 04:27:51 10° NNW 04:31:59 37° W 04:36:05 10° SSW
Cosmos 1470 Rocket 4.1 04:29:37 10° N 04:33:58 60° ENE 04:38:14 10° SSE
SJ-6F 4.4 04:30:40 10° NNE 04:34:52 83° WNW 04:39:03 10° SSW
Cosmos 1437 Rocket 3.5 04:31:33 10° S 04:35:32 56° E 04:39:28 10° NNE
Landsat 5 3.9 04:34:22 10° SSW 04:37:54 34° W 04:41:32 10° NNW
ATLAS 2AS CENTAUR R/B 3.9 04:30:27 10° SSW 04:37:57 49° ESE 04:45:20 10° NE
CZ-2C R/B 2.8 04:34:10 10° N 04:38:37 40° WNW 04:41:25 20° SW
Cosmos 2315 Rocket 4.1 04:35:48 10° SSW 04:41:51 55° WNW 04:47:58 10° N
CZ-4B R/B 1.6 04:38:54 10° SSE 04:41:57 64° ENE 04:44:59 10° N
Cosmos 2219 Rocket 2.6 04:36:52 10° NW 04:42:05 38° WSW 04:47:17 10° S
COSMO-SKYMED 1 2.6 04:38:38 10° SSE 04:42:58 85° ENE 04:47:21 10° NNW
Cosmos 2297 Rocket 4.1 04:38:34 10° SSE 04:43:27 31° ESE 04:48:22 10° NE
Cosmos 1782 3.1 04:41:33 10° S 04:45:28 68° E 04:49:25 10° NNE
CBERS 1 LM4 rocket 4.3 04:41:34 10° NNE 04:46:24 77° WNW 04:51:07 10° SSW
Sich 1 3.7 04:44:37 10° NNW 04:48:36 33° W 04:52:32 10° SSW
Cosmos 1606 3.6 04:47:57 22° WSW 04:49:35 29° WNW 04:53:03 10° N
Cosmos 1980 3.6 04:45:17 10° NNW 04:50:59 82° WSW 04:56:40 10° SSE
Cosmos 1500 3.5 04:47:15 10° N 04:51:03 70° ENE 04:54:51 10° SSE
Cosmos 1140 Rocket 3.8 04:45:53 10° SSW 04:51:03 71° ESE 04:56:14 10° NNE
METEOR-M 4.1 04:47:01 10° NNE 04:52:22 73° WNW 04:57:41 10° SSW
Meteor 1-26 Rocket 4.4 04:48:33 10° S 04:54:20 86° E 05:00:20 10° NNE
Cosmos 1933 Rocket 4.1 04:49:56 10° N 04:54:23 66° ENE 04:58:50 10° SSE
Cosmos 1666 Rocket 3.8 04:51:41 10° NNW 04:55:50 43° W 05:00:00 10° SSW
ERS-2 3.5 04:52:55 10° SE 04:56:23 43° ENE 04:59:52 10° N
Cosmos 2074 Rocket 4.0 04:50:25 10° NNW 04:56:35 66° W 05:02:42 10° S
COSMOS 2428 3.3 04:53:35 10° NW 04:58:42 34° WSW 05:03:47 10° S
BREEZE M DEB (TANK) 3.2 04:59:34 18° WSW 05:01:25 40° S 05:07:46 10° ESE
ARIANE 5 R/B 4.2 04:58:50 10° NNW 05:01:43 16° NW 05:03:42 13° WNW
MOS 1 Rocket 3.2 04:57:47 10° S 05:02:11 62° W 05:06:52 10° NNW
SeaSat 1 2.6 04:57:28 10° SSE 05:02:18 54° WSW 05:07:10 10° NW
Cosmos 1023 Rocket 4.5 04:57:34 10° SSW 05:02:47 88° ESE 05:07:58 10° NNE
BREEZE-M DEB (TANK) 2.7 05:00:38 15° WSW 05:03:57 54° S 05:06:17 10° ESE
YAOGAN 6 4.4 05:00:47 10° NNE 05:04:01 34° E 05:07:13 10° SSE
Cosmos 2154 Rocket 4.0 04:57:48 10° NNW 05:04:04 84° W 05:10:21 10° S
CZ-4C R/B 4.5 05:04:28 16° WSW 05:05:18 17° W 05:07:40 10° NW
ATLAS 5 CENTAUR R/B 1.7 05:01:18 10° SW 05:05:19 74° SE 05:09:58 10° NE
CZ-4B R/B 3.5 05:03:27 10° N 05:07:10 72° WNW 05:10:48 10° SSW
ATLAS 3B R/B 2.8 05:00:16 10° NW 05:07:14 85° SW 05:14:30 10° SE
ADEOS 3.5 05:02:25 10° NNE 05:07:41 79° WNW 05:12:54 10° SSW
Cosmos 1602 4.2 05:05:55 10° NNW 05:09:35 38° W 05:13:12 10° SSW
FENGYUN 3A 4.1 05:08:19 10° N 05:13:24 41° WNW 05:18:27 10° SW
USA 267 3.5 05:10:13 10° ENE 05:16:39 62° N 05:23:04 10° W
H-2A R/B 3.1 05:16:17 10° SSW 05:19:40 23° W 05:23:01 10° NW
Cosmos 1151 Rocket 3.3 05:17:08 10° SSW 05:21:18 47° WNW 05:25:28 10° N
NOSS 0 Rocket 4.4 05:16:56 10° NW 05:22:38 40° WSW 05:28:19 10° S
Cosmos 909 Rocket 4.1 05:16:22 10° SW 05:22:46 66° NW 05:29:09 10° NE
Cosmos 2219 4.0 05:17:42 10° S 05:23:12 56° ESE 05:28:42 10° NE
Cosmos 2184 Rocket 4.3 05:17:25 10° NNW 05:23:23 46° W 05:29:24 10° SSW
Cosmos 1763 Rocket 3.6 05:18:11 10° NNW 05:23:28 83° ENE 05:28:38 10° SSE
Meteor 2-12 Rocket 4.4 05:17:42 10° NNW 05:23:50 69° W 05:29:57 10° S
COSMOS 2487 4.1 05:23:34 11° W 05:25:45 17° NW 05:28:05 10° N
Cosmos 1633 Rocket 3.9 05:23:03 10° NNW 05:26:47 27° W 05:30:28 10° SW
Geosat 4.4 05:26:18 10° NNE 05:31:08 47° NW 05:35:55 10° WSW
SKYMED 2 4.2 05:27:12 10° SSW 05:31:11 35° W 05:35:12 10° NNW
H-2A R/B 2.7 05:28:22 10° NNE 05:32:19 82° WNW 05:36:11 10° SSW
Cosmos 468 Rocket 4.0 05:30:38 10° NNW 05:35:52 77° WSW 05:41:00 10° SSE
ISS -1.8 05:34:10 10° WSW 05:36:12 15° SW 05:38:13 10° S
Cosmos 1242 Rocket 2.4 05:32:52 10° SSW 05:36:20 86° WNW 05:39:52 10° NNE
ALOS 3.5 05:35:03 10° N 05:38:44 24° WNW 05:42:25 10° WSW
CENTAUR R/B 4.3 05:35:59 10° WNW 05:41:47 21° WSW 05:47:54 10° SSW
Meteor 1-11 Rocket 3.8 05:37:18 10° NNW 05:42:52 89° ENE 05:48:26 10° SSE
Cosmos 2366 rocket 4.5 05:36:34 10° N 05:42:56 70° ENE 05:49:11 10° SSE
